Regional Weather Roundup
Issued by NWS

Home | Current Version | Previous Version | Graphics & Text | Print | Product List | Glossary On
Versions: 1 2 3 4 5 6 7 8 9 10 11 12 13 14 15 16 17 18 19 20 21 22 23 24 25 26 27 28 29 30 31 32 33 34 35 36 37 38 39 40 41 42 43 44 45 46 47 48 49 50
000
ASUS43 KTOP 212108
RWRKS

WEATHER ROUNDUP FOR KANSAS
NATIONAL WEATHER SERVICE GOODLAND KS
300 PM CST SUN DEC 21 2014

NOTE:  "FAIR" INDICATES FEW OR NO CLOUDS BELOW 12,000 FEET WITH NO
SIGNIFICANT WEATHER AND/OR OBSTRUCTIONS TO VISIBILITY.

KSZ001>006-013>018-027>032-041>047-212200-
NORTHWEST KANSAS

CITY           SKY/WX    TMP DP  RH WIND       PRES   REMARKS
GOODLAND       CLOUDY    49  33  54 SE7       29.56F
HAYS           CLOUDY    45  34  65 S14G20    29.66F
HILL CITY      PTSUNNY   46  36  68 S15       29.63F
RUSSELL        CLOUDY    42  40  92 S14       29.66F
$$

KSZ061>065-074>080-084>089-212200-
SOUTHWEST KANSAS

CITY           SKY/WX    TMP DP  RH WIND       PRES   REMARKS
DODGE CITY     MOSUNNY   47  36  65 S16       29.65F
ELKHART          N/A    N/A N/A N/A MISG        N/A
GARDEN CITY    SUNNY     49  31  49 S10       29.61F
GREAT BEND     CLOUDY    43  37  81 S15       29.69F
LIBERAL        SUNNY     54  39  58 S12       29.64F
PRATT          CLOUDY    41  41 100 S12       29.71F FOG
$$

KSZ066>073-081>083-090>101-212200-
SOUTHEAST KANSAS

CITY           SKY/WX    TMP DP  RH WIND       PRES   REMARKS
CHANUTE        CLOUDY    46  42  86 S15       29.85F
COFFEYVILLE    CLOUDY    47  41  80 S16       29.86F
HUTCHINSON     CLOUDY    44  41  89 S17G24    29.73F FOG
MEDICINE LODGE   N/A     43  43 100 S12       29.71F
NEWTON         CLOUDY    43  37  81 S14       29.77F
PARSONS        CLOUDY    47  42  83 S9        29.86F
WICHITA INTL   DRIZZLE   45  43  93 S13       29.76F FOG
WICHITA JABRA  CLOUDY    43  42  97 S12G20    29.77S FOG
WICHITA MCCONL CLOUDY    44  43  96 SE13      29.77F FOG
WINFIELD       CLOUDY    46  43  89 S16       29.79F FOG
$$

KSZ007>012-019>026-033>040-048>060-102>105-212200-
NORTHEAST KANSAS

CITY           SKY/WX    TMP DP  RH WIND       PRES   REMARKS
CONCORDIA      CLOUDY    41  40  96 S13       29.71F FOG
EMPORIA        CLOUDY    43  41  93 SE13      29.80F FOG
LAWRENCE       CLOUDY    45  39  79 S13       29.83F
MANHATTAN      CLOUDY    45  41  86 S10       29.77F
MARYSVILLE     CLOUDY    43  39  87 S10G16    29.75F
OLATHE IND     CLOUDY    44  40  85 S10       29.85F
OLATHE EXE     CLOUDY    45  40  82 S14       29.84F
SALINA         CLOUDY    44  41  89 S15       29.74F
TOPEKA BILLARD CLOUDY   N/A N/A N/A S9        29.83F
TOPEKA FORBES  CLOUDY    45  40  82 S14       29.81F
$$



USA.gov is the U.S. government's official web portal to all federal, state and local government web resources and services.